[TLELIST] Archives

 

Current TLEs

May 3rd 2006 PDT

HST 1 20580U 90037B 06121.92108145 +.00000723 +00000-0 +43712-4 0 06231 2 20580 028.4683 351.4880 0003430 057.0396 303.0525 15.00021678678141 ISS (ZARYA) 1 25544U 98067A 06123.47800926 .00016294 00000-0 10694-3 0 8532 2 25544 051.6388 057.6087 0008624 177.7387 346.6972 15.75873623426114 CXO 1 25867U 99040B 06122.79166667 .00000000 00000-0 00000+0 0 9213 2 25867 059.3646 097.4451 5789180 292.2185 357.2457 00.37787992 1219 ____________________________________________________________________ These 2-Line ...Continue Reading

Current TLEs

May 2nd 2006 PDT

HST 1 20580U 90037B 06121.92108145 +.00000723 +00000-0 +43712-4 0 06231 2 20580 028.4683 351.4880 0003430 057.0396 303.0525 15.00021678678141 ISS (ZARYA) 1 25544U 98067A 06121.94933694 +.00016955 +00000-0 +11133-3 0 08455 2 25544 051.6378 065.4785 0008789 172.2485 314.0959 15.75823871425872 CXO 1 25867U 99040B 06122.79166667 .00000000 00000-0 00000+0 0 9213 2 25867 059.3646 097.4451 5789180 292.2185 357.2457 00.37787992 1219 ____________________________________________________________________ These 2-Line ...Continue Reading

Current TLEs

May 1st 2006 PDT

HST 1 20580U 90037B 06120.85652143 .00000632 00000-0 36617-4 0 5991 2 20580 028.4685 358.4283 0003278 045.3524 314.7332 15.00020027677983 ISS (ZARYA) 1 25544U 98067A 06121.44502315 .00017247 00000-0 11325-3 0 8405 2 25544 051.6386 068.0752 0008756 170.1797 333.2989 15.75807820425794 CXO 1 25867U 99040B 06120.16666667 .00000000 00000-0 00000+0 0 9206 2 25867 059.3357 097.4652 5794016 292.3120 359.8220 00.37795408 1212 ____________________________________________________________________ These 2-Line ...Continue Reading

Current TLEs

April 30th 2006 PDT

HST 1 20580U 90037B 06119.72542563 .00000591 00000-0 33344-4 0 5986 2 20580 028.4682 005.8016 0003326 032.5434 327.5369 15.00018664677817 ISS (ZARYA) 1 25544U 98067A 06120.49392361 .00014100 00000-0 93573-4 0 8330 2 25544 051.6376 072.9731 0008733 165.3417 339.0277 15.75762836425649 CXO 1 25867U 99040B 06120.16666667 .00000000 00000-0 00000+0 0 9206 2 25867 059.3357 097.4652 5794016 292.3120 359.8220 00.37795408 1212 ____________________________________________________________________ These 2-Line ...Continue Reading

Current TLEs

April 29th 2006 PDT

HST 1 20580U 90037B 06117.79590521 +.00000673 +00000-0 +39802-4 0 05984 2 20580 028.4683 018.3802 0003302 010.1316 349.9338 15.00017391677523 ISS (ZARYA) 1 25544U 98067A 06119.47881944 .00009881 00000-0 66990-4 0 8272 2 25544 051.6382 078.1995 0008797 161.9751 340.0953 15.75717921425489 CXO 1 25867U 99040B 06120.16666667 .00000000 00000-0 00000+0 0 9206 2 25867 059.3357 097.4652 5794016 292.3120 359.8220 00.37795408 1212 ____________________________________________________________________ These 2-Line ...Continue Reading

Current TLEs

April 28th 2006 PDT

HST 1 20580U 90037B 06118.06204602 .00000529 00000-0 28532-4 0 5974 2 20580 028.4684 016.6460 0003227 013.8564 346.2090 15.00016986677564 ISS (ZARYA) 1 25544U 98067A 06118.45611307 .00007384 00000-0 51204-4 0 8215 2 25544 051.6382 083.4647 0008872 159.9077 296.8632 15.75685262425321 CXO 1 25867U 99040B 06117.54166667 .00000000 00000-0 00000+0 0 9197 2 25867 059.2848 097.5458 5801633 292.3164 002.4665 00.37807696 1210 ____________________________________________________________________ These 2-Line ...Continue Reading

Current TLEs

April 27th 2006 PDT

HST 1 20580U 90037B 06116.86441210 .00000664 00000-0 39145-4 0 5969 2 20580 028.4682 024.4516 0003325 358.7280 001.3311 15.00016434677389 ISS (ZARYA) 1 25544U 98067A 06117.48776983 .00007225 00000-0 45970-4 0 8148 2 25544 051.6367 088.4525 0008793 157.5940 202.5973 15.75668126425174 CXO 1 25867U 99040B 06117.54166667 .00000000 00000-0 00000+0 0 9197 2 25867 059.2848 097.5458 5801633 292.3164 002.4665 00.37807696 1210 __ These 2-Line Elements (TLEs) are direct from DoD/USSTRATCOM/US Space Command w ...Continue Reading

Current TLEs

April 26th 2006 PDT

HST 1 20580U 90037B 06115.79984768 .00000566 00000-0 31433-4 0 5952 2 20580 028.4681 031.3898 0003317 346.7156 013.3348 15.00014953677228 ISS (ZARYA) 1 25544U 98067A 06116.43399368 .00011300 00000-0 76167-4 0 8073 2 25544 051.6391 093.8748 0008967 151.0196 347.7315 15.75663352425003 CXO 1 25867U 99040B 06114.87500000 .00000000 00000-0 00000+0 0 9182 2 25867 059.2379 097.6715 5801804 292.2526 359.5182 00.37807984 1217 __ These 2-Line Elements (TLEs) are direct from DoD/USSTRATCOM/US Space Command w ...Continue Reading

Current TLEs

April 25th 2006 PDT

HST 1 20580U 90037B 06113.93685944 +.00000492 +00000-0 +25558-4 0 06152 2 20580 028.4677 043.5373 0003514 327.5975 032.4401 15.00013051676949 ISS (ZARYA) 1 25544U 98067A 06115.47421414 .00011773 00000-0 79242-4 0 8019 2 25544 051.6383 098.8172 0008962 147.9003 302.9764 15.75642362424857 CXO 1 25867U 99040B 06114.87500000 .00000000 00000-0 00000+0 0 9182 2 25867 059.2379 097.6715 5801804 292.2526 359.5182 00.37807984 1217 __ These 2-Line Elements (TLEs) are direct from DoD/USSTRATCOM/US Space Command w ...Continue Reading

Current TLEs

April 24th 2006 PDT

HST 1 20580U 90037B 06113.93685944 +.00000492 +00000-0 +25558-4 0 06152 2 20580 028.4677 043.5373 0003514 327.5975 032.4401 15.00013051676949 ISS (ZARYA) 1 25544U 98067A 06114.46787179 .00011163 00000-0 75442-4 0 7942 2 25544 051.6389 103.9954 0009219 144.2064 354.5721 15.75615645424694 CXO 1 25867U 99040B 06114.87500000 .00000000 00000-0 00000+0 0 9182 2 25867 059.2379 097.6715 5801804 292.2526 359.5182 00.37807984 1217 __ These 2-Line Elements (TLEs) are direct from DoD/USSTRATCOM/US Space Command w ...Continue Reading
  • This mailing list is a public mailing list - anyone may join or leave, at any time.
  • This mailing list is announce-only.

International Space Station (ISS) / Hubble Space Telescope (HST) / Chandra X-Ray Observatory Orbital Data via EMAIL

Privacy Policy:

Private list